• In Russia
  • List of Countries
  • For 7 days
  • Water Temperature
  • Satellite Maps
  • Weather Map
  • Weather Widgets
  • user-avatar
    Login

    Hourly Weather Hudzhan

    Today, 19 December, Wednesday

    Time Temperature Precipitation Wind Pressure Humidity
    00:00 +7°C° 0.3 mm 2 mps 723 mmHg 75%
    01:00 +7°C° 0.3 mm 2 mps 723 mmHg 76%
    02:00 +7°C° 0.3 mm 2 mps 723 mmHg 78%
    03:00 +7°C° 0.3 mm 2 mps 722 mmHg 79%
    04:00 +7°C° 0.3 mm 2 mps 722 mmHg 81%
    05:00 +7°C° 0.3 mm 2 mps 722 mmHg 82%
    06:00 +6°C° 0.3 mm 2 mps 722 mmHg 85%
    07:00 +6°C° 0.3 mm 2 mps 723 mmHg 87%
    08:00 +6°C° 0.3 mm 2 mps 723 mmHg 90%
    09:00 +6°C° 0.4 mm 2 mps 723 mmHg 90%
    10:00 +6°C° 0.4 mm 2 mps 723 mmHg 90%
    11:00 +6°C° 0.4 mm 2 mps 724 mmHg 90%
    12:00 +6°C° 0.6 mm 2 mps 724 mmHg 90%
    13:00 +6°C° 0.6 mm 2 mps 724 mmHg 90%
    14:00 +5°C° 0.6 mm 3 mps 724 mmHg 91%
    15:00 +5°C° 0.8 mm 3 mps 725 mmHg 91%
    16:00 +4°C° 0.8 mm 3 mps 725 mmHg 92%
    17:00 +4°C° 0.8 mm 3 mps 726 mmHg 93%
    18:00 +4°C° 0.7 mm 3 mps 726 mmHg 93%
    19:00 +3°C° 0.7 mm 3 mps 727 mmHg 93%
    20:00 +3°C° 0.7 mm 3 mps 727 mmHg 94%
    21:00 +3°C° 0.4 mm 3 mps 728 mmHg 94%
    22:00 +2°C° 0.4 mm 3 mps 728 mmHg 94%
    23:00 +2°C° 0.4 mm 3 mps 728 mmHg 94%

    Tomorrow, 20 December, Thursday

    Time Temperature Precipitation Wind Pressure Humidity
    00:00 +2°C° 0.3 mm 3 mps 728 mmHg 94%
    01:00 +2°C° 0.3 mm 3 mps 729 mmHg 94%
    02:00 +1°C° 0.3 mm 3 mps 729 mmHg 94%
    03:00 +1°C° 0.3 mm 3 mps 729 mmHg 94%
    04:00 +1°C° 0.3 mm 3 mps 729 mmHg 95%
    05:00 +1°C° 0.3 mm 3 mps 730 mmHg 95%
    06:00 +1°C° 0.2 mm 3 mps 730 mmHg 95%
    07:00 +1°C° 0.2 mm 3 mps 730 mmHg 94%
    08:00 +2°C° 0.2 mm 2 mps 731 mmHg 94%
    09:00 +2°C° 0.1 mm 2 mps 731 mmHg 94%
    10:00 +2°C° 0.1 mm 2 mps 731 mmHg 93%
    11:00 +3°C° 0.1 mm 2 mps 731 mmHg 92%
    12:00 +3°C° 0 mm 2 mps 731 mmHg 92%
    13:00 +3°C° 0 mm 2 mps 731 mmHg 91%
    14:00 +3°C° 0 mm 2 mps 730 mmHg 90%
    15:00 +3°C° 0 mm 2 mps 730 mmHg 90%
    16:00 +4°C° 0 mm 1 mps 730 mmHg 90%
    17:00 +3°C° 0 mm 1 mps 730 mmHg 90%
    18:00 +3°C° 0 mm 1 mps 731 mmHg 87%
    19:00 +3°C° 0 mm 1 mps 731 mmHg 85%
    20:00 +3°C° 0 mm 1 mps 731 mmHg 82%
    21:00 +3°C° 0 mm 1 mps 731 mmHg 79%
    22:00 +2°C° 0 mm 2 mps 730 mmHg 77%
    23:00 +2°C° 0 mm 2 mps 730 mmHg 75%

    Day after tomorrow, 21 December, Friday

    Time Temperature Precipitation Wind Pressure Humidity
    00:00 +2°C° 0 mm 2 mps 730 mmHg 75%
    01:00 +2°C° 0 mm 2 mps 730 mmHg 76%
    02:00 +1°C° 0 mm 3 mps 730 mmHg 77%
    03:00 +1°C° 0 mm 3 mps 729 mmHg 76%
    04:00 +1°C° 0 mm 3 mps 729 mmHg 75%
    05:00 +1°C° 0 mm 3 mps 728 mmHg 75%
    06:00 +1°C° 0 mm 3 mps 728 mmHg 73%
    07:00 +1°C° 0 mm 3 mps 728 mmHg 72%
    08:00 0°C° 0 mm 4 mps 728 mmHg 71%
    09:00 +3°C° 0 mm 4 mps 727 mmHg 68%
    10:00 +4°C° 0 mm 4 mps 726 mmHg 65%
    11:00 +5°C° 0 mm 5 mps 726 mmHg 63%
    12:00 +6°C° 0 mm 5 mps 725 mmHg 61%
    13:00 +6°C° 0 mm 5 mps 724 mmHg 59%
    14:00 +7°C° 0 mm 4 mps 723 mmHg 57%
    15:00 +6°C° 0 mm 4 mps 723 mmHg 57%
    16:00 +5°C° 0 mm 4 mps 723 mmHg 57%
    17:00 +4°C° 0 mm 3 mps 723 mmHg 58%
    18:00 +4°C° 0 mm 3 mps 723 mmHg 56%
    19:00 +4°C° 0 mm 3 mps 722 mmHg 54%
    20:00 +4°C° 0 mm 3 mps 722 mmHg 53%
    21:00 +4°C° 0 mm 3 mps 722 mmHg 51%
    22:00 +5°C° 0 mm 3 mps 722 mmHg 50%
    23:00 +5°C° 0 mm 3 mps 721 mmHg 48%

    22 December, Saturday

    Time Temperature Precipitation Wind Pressure Humidity
    00:00 +5°C° 0 mm 3 mps 721 mmHg 49%
    01:00 +6°C° 0 mm 2 mps 721 mmHg 49%
    02:00 +6°C° 0 mm 2 mps 721 mmHg 49%
    03:00 +6°C° 0 mm 2 mps 720 mmHg 49%
    04:00 +6°C° 0 mm 2 mps 720 mmHg 48%
    05:00 +6°C° 0 mm 2 mps 720 mmHg 48%
    06:00 +6°C° 0 mm 2 mps 720 mmHg 49%
    07:00 +6°C° 0 mm 2 mps 720 mmHg 50%
    08:00 +5°C° 0 mm 2 mps 721 mmHg 51%
    09:00 +6°C° 0 mm 2 mps 721 mmHg 51%
    10:00 +7°C° 0 mm 2 mps 721 mmHg 51%
    11:00 +8°C° 0 mm 2 mps 721 mmHg 51%
    12:00 +8°C° 0 mm 2 mps 721 mmHg 49%
    13:00 +9°C° 0 mm 1 mps 721 mmHg 47%
    14:00 +10°C° 0 mm 1 mps 721 mmHg 45%
    15:00 +9°C° 0 mm 1 mps 721 mmHg 48%
    16:00 +8°C° 0 mm 1 mps 721 mmHg 50%
    17:00 +8°C° 0 mm 1 mps 721 mmHg 52%
    18:00 +7°C° 0 mm 1 mps 722 mmHg 52%
    19:00 +7°C° 0 mm 1 mps 722 mmHg 51%
    20:00 +7°C° 0 mm 1 mps 722 mmHg 51%
    21:00 +7°C° 0 mm 1 mps 722 mmHg 52%
    22:00 +7°C° 0 mm 1 mps 722 mmHg 52%
    23:00 +7°C° 0 mm 1 mps 722 mmHg 52%

    23 December, Sunday

    Time Temperature Precipitation Wind Pressure Humidity
    00:00 +6°C° 0 mm 1 mps 722 mmHg 53%
    01:00 +6°C° 0 mm 1 mps 722 mmHg 54%
    02:00 +6°C° 0 mm 1 mps 722 mmHg 55%
    03:00 +6°C° 0 mm 1 mps 722 mmHg 57%
    04:00 +5°C° 0 mm 1 mps 722 mmHg 59%
    05:00 +5°C° 0 mm 1 mps 722 mmHg 61%
    06:00 +5°C° 0 mm 1 mps 722 mmHg 63%
    07:00 +5°C° 0 mm 1 mps 723 mmHg 66%
    08:00 +5°C° 0 mm 1 mps 723 mmHg 68%
    09:00 +6°C° 0 mm 1 mps 723 mmHg 66%
    10:00 +6°C° 0 mm 1 mps 723 mmHg 64%
    11:00 +7°C° 0 mm 1 mps 724 mmHg 62%
    12:00 +8°C° 0 mm 1 mps 724 mmHg 61%
    13:00 +8°C° 0 mm 1 mps 723 mmHg 61%
    14:00 +8°C° 0 mm 1 mps 723 mmHg 60%
    15:00 +8°C° 0 mm 1 mps 723 mmHg 64%
    16:00 +7°C° 0 mm 1 mps 724 mmHg 68%
    17:00 +7°C° 0 mm 1 mps 724 mmHg 71%
    18:00 +6°C° 0.1 mm 1 mps 724 mmHg 72%
    19:00 +6°C° 0.1 mm 1 mps 724 mmHg 73%
    20:00 +6°C° 0.1 mm 1 mps 724 mmHg 74%
    21:00 +6°C° 0.1 mm 1 mps 725 mmHg 75%
    22:00 +6°C° 0.1 mm 1 mps 725 mmHg 75%
    23:00 +6°C° 0.1 mm 1 mps 725 mmHg 76%

    24 December, Monday

    Time Temperature Precipitation Wind Pressure Humidity
    00:00 +5°C° 0 mm 1 mps 725 mmHg 77%
    01:00 +5°C° 0 mm 1 mps 725 mmHg 78%
    02:00 +5°C° 0 mm 1 mps 724 mmHg 78%
    03:00 +5°C° 0 mm 1 mps 724 mmHg 79%
    04:00 +5°C° 0 mm 1 mps 724 mmHg 79%
    05:00 +5°C° 0 mm 1 mps 724 mmHg 80%
    06:00 +5°C° 0 mm 1 mps 724 mmHg 80%
    07:00 +4°C° 0 mm 1 mps 725 mmHg 80%
    08:00 +4°C° 0 mm 1 mps 725 mmHg 80%
    09:00 +5°C° 0 mm 2 mps 725 mmHg 74%
    10:00 +6°C° 0 mm 2 mps 725 mmHg 69%
    11:00 +7°C° 0 mm 2 mps 725 mmHg 63%
    12:00 +7°C° 0 mm 2 mps 724 mmHg 62%
    13:00 +8°C° 0 mm 2 mps 724 mmHg 62%
    14:00 +8°C° 0 mm 2 mps 723 mmHg 61%
    15:00 +7°C° 0.1 mm 2 mps 723 mmHg 64%
    16:00 +8°C° 0.1 mm 1 mps 723 mmHg 67%
    17:00 +7°C° 0.1 mm 1 mps 723 mmHg 70%
    18:00 +7°C° 0 mm 1 mps 723 mmHg 70%
    19:00 +7°C° 0 mm 1 mps 724 mmHg 70%
    20:00 +7°C° 0 mm 1 mps 724 mmHg 70%
    21:00 +6°C° 0 mm 2 mps 724 mmHg 70%
    22:00 +6°C° 0 mm 2 mps 724 mmHg 69%
    23:00 +6°C° 0 mm 2 mps 724 mmHg 68%
    Show more